Regional Weather Roundup
Issued by NWS

Home | Current Version | Previous Version | Text Only | Print | Product List | Glossary Off
Versions: 1 2 3 4 5 6 7 8 9 10 11 12 13 14 15 16 17 18 19 20 21 22 23 24 25 26 27 28 29 30 31 32 33 34 35 36 37 38 39 40 41 42 43 44 45 46 47 48 49 50

000
ASUS43 KDMX 201807
RWRIA

WEATHER ROUNDUP FOR IOWA
NATIONAL WEATHER SERVICE DES MOINES IA
1200 PM CST SAT DEC 20 2014

NOTE: "FAIR" INDICATES FEW OR NO CLOUDS BELOW 12,000 FEET WITH NO
SIGNIFICANT WEATHER AND/OR OBSTRUCTIONS TO VISIBILITY.

* - THESE STATIONS ARE NOT NWS STATIONS...THUS NOT UNDER NWS
QUALITY CONTROL.  THEY ALSO DO NOT REPORT WEATHER SUCH
AS PRECIPITATION OR FOG.

IAZ001>003-012>014-020>022-031>034-043>046-201900-
   NORTHWEST IOWA

CITY           SKY/WX    TMP DP  RH WIND       PRES   REMARKS
CARROLL *      CLOUDY    32  32 100 S8        30.11F FOG     WCI  25
CHEROKEE *     CLOUDY    32  31  98 S8        30.09F FOG     WCI  25
DENISON *      CLOUDY    32  32 100 S7        30.08F FOG     WCI  26
LE MARS *      CLOUDY    32  30  93 S9        30.09F WCI  24
ORANGE CITY *  CLOUDY    32  28  86 S7        30.08S FOG     WCI  26
SHELDON *      CLOUDY    30  30 100 S12       30.06F FOG     WCI  21
SIOUX CITY     CLOUDY    33  30  88 S9        30.10F WCI  25
6HR MIN TEMP:  32; 6HR MAX TEMP:  34;

SPENCER        CLOUDY    32  28  85 S8        30.10F WCI  25
6HR MIN TEMP:  29; 6HR MAX TEMP:  32;

STORM LAKE *   CLOUDY    30  30 100 S10       30.09F FOG     WCI  21
$$

IAZ055>058-069>071-079>083-090>094-201900-
   SOUTHWEST IOWA

CITY           SKY/WX    TMP DP  RH WIND       PRES   REMARKS
ATLANTIC *     CLOUDY    32  32 100 S8        30.12F FOG     WCI  25
AUDUBON *      CLOUDY    32  28  86 S7        30.12F FOG     WCI  26
CLARINDA *     CLOUDY    34  34 100 S7        30.15F FOG     WCI  28
COUNCIL BLFS * CLOUDY    32  32 100 S7        30.09F FOG     WCI  26
CRESTON *      CLOUDY    32  32 100 S10       30.13F FOG     WCI  24
HARLAN  *      CLOUDY    32  32 100 S8        30.14F FOG     WCI  25
LAMONI         CLOUDY    33  32  96 S9        30.14F FOG     WCI  25
6HR MIN TEMP:  31; 6HR MAX TEMP:  33;

RED OAK *      CLOUDY    34  34 100 S8        30.12F FOG     WCI  27
SHENANDOAH *   CLOUDY    34  34 100 S8        30.13F FOG     WCI  27
$$

IAZ047>049-059>061-072>074-084-201900-
   CENTRAL IOWA

CITY           SKY/WX    TMP DP  RH WIND       PRES   REMARKS
AMES           CLOUDY    32  29  88 SE8       30.15F FOG     WCI  25
6HR MIN TEMP:  30; 6HR MAX TEMP:  32;

ANKENY *       CLOUDY    34  32  93 SE6       30.16F WCI  29
CHARITON *     FOG       34  32  93 S8        30.16F VSB 1   WCI  27
DES MOINES     CLOUDY    34  31  88 S8        30.16F FOG     WCI  27
6HR MIN TEMP:  32; 6HR MAX TEMP:  34; 6HR PCP: TRACE;

GRINNELL*      CLOUDY    32  32 100 SE5       30.17F FOG     WCI  27
KNOXVILLE *    CLOUDY    34  32  93 SE7       30.15F FOG     WCI  28
MARSHALLTOWN   CLOUDY    32  27  81 SW7       30.16F WCI  26
6HR MIN TEMP:  30; 6HR MAX TEMP:  32;

PELLA *        CLOUDY    33  33  99 SE6       30.19F FOG     WCI  28
PERRY *        CLOUDY    32  32 100 S7        30.14F FOG     WCI  26
$$

IAZ004>006-015-016-023>025-035-036-201900-
   NORTH CENTRAL IOWA

CITY           SKY/WX    TMP DP  RH WIND       PRES   REMARKS
ALGONA *       CLOUDY    32  30  93 S9        30.13F WCI  24
CLARION *      CLOUDY    32  32 100 S7        30.14F WCI  26
ESTHERVILLE    CLOUDY    30  28  92 S8        30.10F WCI  22
6HR MIN TEMP:  28; 6HR MAX TEMP:  30;

FORT DODGE *   CLOUDY    32  27  80 S7        30.14F WCI  26
MASON CITY     CLOUDY    30  29  96 S6        30.16F FOG     WCI  24
6HR MIN TEMP:  29; 6HR MAX TEMP:  30;

FOREST CITY *  CLOUDY    32  28  86 S7        30.14F WCI  26
IOWA FALLS *   CLOUDY    31  28  88 SE5       30.16F WCI  27
$$

IAZ007>011-017>019-026>030-037>042-050>054-066-201900-
   NORTHEAST IOWA

CITY           SKY/WX    TMP DP  RH WIND       PRES   REMARKS
CEDAR RAPIDS   CLOUDY    31  30  96 SE8       30.19F FOG     WCI  23
6HR MIN TEMP:  29; 6HR MAX TEMP:  31;

CHARLES CITY * CLOUDY    30  32 100 S9        30.17S FOG     WCI  22
CLINTON *      CLOUDY    32  25  74 SE10      30.26F WCI  24
DECORAH *      CLOUDY    30  28  93 S9        30.17S FOG     WCI  22
DUBUQUE        CLOUDY    30  25  81 S12       30.21F HAZE    WCI  20
6HR MIN TEMP:  26; 6HR MAX TEMP:  30;

MONTICELLO *   MIX PCPN  30  30 100 SE9       30.21F WCI  22
OELWEIN *      CLOUDY    30  30 100 S8        30.19S FOG     WCI  23
WATERLOO       CLOUDY    32  31  96 S8        30.18F FOG     WCI  25
6HR MIN TEMP:  29; 6HR MAX TEMP:  32; 6HR PCP: TRACE;

$$

IAZ064-065-067-068-078-201900-
   EAST CENTRAL IOWA

CITY           SKY/WX    TMP DP  RH WIND       PRES   REMARKS
DAVENPORT      CLOUDY    32  25  75 SE9       30.23F WCI  24
6HR MIN TEMP:  28; 6HR MAX TEMP:  32;

IOWA CITY      CLOUDY    32  29  88 SE6       30.23F FOG     WCI  26
6HR MIN TEMP:  30; 6HR MAX TEMP:  32;

MT. PLEASANT * CLOUDY    33  30  88 S6        30.22F FOG     WCI  28
MUSCATINE *    CLOUDY    34  28  80 SE6       30.24F HAZE    WCI  29
QUAD CITIES    CLOUDY    33  26  75 SE7       30.23F HAZE    WCI  27
6HR MIN TEMP:  29; 6HR MAX TEMP:  33;

$$

IAZ062-063-075>077-085>089-095>099-201900-
   SOUTHEAST IOWA

CITY           SKY/WX    TMP DP  RH WIND       PRES   REMARKS
BURLINGTON     CLOUDY    34  30  85 S6        30.22F FOG     WCI  29
6HR MIN TEMP:  31; 6HR MAX TEMP:  34; 6HR PCP: TRACE;

FAIRFIELD *    CLOUDY    34  32  93 S8        30.21S FOG     WCI  27
FORT MADISON * CLOUDY    36  32  87 S7        30.23S FOG     WCI  30
KEOKUK *       CLOUDY    36  32  87 SE6       30.21F FOG     WCI  31
OSKALOOSA *    CLOUDY    33  32  98 S8        30.19F FOG     WCI  25
CENTERVILLE *  CLOUDY    34  34 100 S6        30.18F WCI  29
OTTUMWA        CLOUDY    33  31  92 S7        30.19F FOG     WCI  27
6HR MIN TEMP:  31; 6HR MAX TEMP:  33; 6HR PCP: TRACE;

WASHINGTON *   CLOUDY    34  34 100 S7        30.21F FOG     WCI  28
$$

ABBREVIATIONS USED IN REMARKS
   TC - TEMPERATURES IN CELSIUS
  WCI - WIND CHILL INDEX
   HX - HEAT INDEX
  VSB - VISIBILITY
$$




USA.gov is the U.S. government's official web portal to all federal, state and local government web resources and services.